{"data":{"norad_id":69806,"epoch":"2026-09-20T03:42:33.005088Z","epoch_age_seconds":51528,"freshness":"FRESH","line1":"1 69806U 26153G   26263.15454867  .00000034  00000+0  12806-4 0  9992","line2":"2 69806  88.9978 351.4984 0006585 350.3743   9.7311 14.04604552 11007","mean_motion":14.04604552,"eccentricity":0.0006585,"inclination_deg":88.9978,"raan_deg":351.4984,"arg_perigee_deg":350.3743,"mean_anomaly_deg":9.7311,"bstar":1.2806e-5,"rev_number":1100,"period_min":102.5199582295,"perigee_km":873.11586139585,"apogee_km":882.67205416724,"semimajor_km":7256.0309577815,"source":"CELESTRAK","updated_at":"2026-09-20T09:00:25.120372Z"}}